Regional Weather Roundup
Issued by NWS Albany, NY

Home | Current Version | Previous Version | Text Only | Print | Product List | Glossary On
Versions: 1 2 3 4 5 6 7 8 9 10 11 12 13 14 15 16 17 18 19 20 21 22 23 24 25 26 27 28 29 30 31 32 33 34 35 36 37 38 39 40 41 42 43 44 45 46 47 48 49 50
000
ASUS41 KALY 232110
RWRALY

NEW YORK STATE HOURLY WEATHER ROUNDUP
NATIONAL WEATHER SERVICE ALBANY NY
500 PM EDT WED AUG 23 2017

NOTE: "FAIR" INDICATES FEW OR NO CLOUDS BELOW 12,000 FEET WITH NO
SIGNIFICANT WEATHER AND/OR NO OBSTRUCTIONS TO VISIBILITY.

NYZ032-033-038>043-046>054-057>066-NYZ062>081-082-084-232200-
EAST


CITY           SKY/WX    TMP DP  RH WIND       PRES   REMARKS
ALBANY         MOSUNNY   76  49  38 W15       29.83R
GLENS FALLS    PTSUNNY   75  53  46 VRB7      29.79S
POUGHKEEPSIE   MOSUNNY   79  53  40 VRB7      29.82S
NEWBURGH       MOSUNNY   77  57  50 NW12G18   29.85S
MONTGOMERY     SUNNY     78  54  43 W9        29.84R
WHITE PLAINS   MOSUNNY   78  53  41 NW10      29.83S
ISLIP          PTSUNNY   80  54  40 NW10      29.81S
NEW YORK CITY  PTSUNNY   81  56  42 NW12      29.82S
CENTRAL PARK   MOSUNNY   79  54  41 NW9       29.85F
$$

NYZ005>009-017-018-044>046-055-056-232200-
CENTRAL


CITY           SKY/WX    TMP DP  RH WIND       PRES   REMARKS
FULTON         SUNNY     75  54  47 W13       29.85S
SYRACUSE       MOSUNNY   74  50  42 SW12G21   29.84F
ROME           SUNNY     73  51  46 W13       29.85S
ELMIRA         MOSUNNY   76  52  43 NW8       29.86F
BINGHAMTON     PTSUNNY   71  48  43 NW10      29.89F
MONTICELLO     SUNNY     72  52  49 W9          N/A
$$

NYZ026>034-041>043-087-232200-
NORTH


CITY           SKY/WX    TMP DP  RH WIND       PRES   REMARKS
WATERTOWN      LGT RAIN  64  61  90 SW6       29.84S
FORT DRUM      NOT AVBL
OGDENSBURG     FAIR      69  58  67 SW12G24   29.78S
MASSENA        SUNNY     71  57  61 SW20G26   29.77S
SARANAC LAKE   LGT RAIN  58  57  97 VRB6      29.83R FOG
PLATTSBURGH    MOSUNNY   75  51  43 VRB6      29.76S
$$

NYZ001>004-010>016-019>021-085-232200-
WEST


CITY           SKY/WX    TMP DP  RH WIND       PRES   REMARKS
NIAGARA FALLS  MOSUNNY   74  53  48 NW14G23   29.87S
BUFFALO        HVY RAIN  66  59  78 W16G29    29.89R
DUNKIRK        MOSUNNY   71  56  58 SW16G24   29.91F
JAMESTOWN      MOSUNNY   66  48  52 W13       29.95F
WELLSVILLE     MOSUNNY   68  50  52 NW15      29.94S
ROCHESTER      CLOUDY    70  55  59 NW3       29.86F
PENN YAN       MOSUNNY   73  50  44 W6        29.88F
$$

             KEY
       WCI = WIND CHILL INDEX
       VSB = VISIBILITY
       HX  = HEAT INDEX
$$



USA.gov is the U.S. government's official web portal to all federal, state and local government web resources and services.